Time,TemperatureF,DewpointF,PressureIn,WindDirection,WindDirectionDegrees,WindSpeedMPH,WindSpeedGustMPH,Humidity,HourlyPrecipIn,Conditions,Clouds,dailyrainin,SoftwareType,DateUTC
2013-02-03 00:02:00,34.0,-99.9,-100.00,South,172,6.0,-999.0,-999,-99.99,,,-99.99,,2013-02-03 07:02:00,
2013-02-03 00:11:00,34.0,-99.9,-100.00,South,172,6.0,-999.0,-999,-99.99,,,-99.99,,2013-02-03 07:11:00,
2013-02-03 00:22:00,34.0,-99.9,-100.00,South,172,6.0,-999.0,-999,-99.99,,,-99.99,,2013-02-03 07:22:00,
2013-02-03 00:32:00,33.0,-99.9,-100.00,South,173,6.0,-999.0,-999,-99.99,,,-99.99,,2013-02-03 07:32:00,
2013-02-03 00:42:00,33.0,-99.9,-100.00,South,173,6.0,-999.0,-999,-99.99,,,-99.99,,2013-02-03 07:42:00,
2013-02-03 00:53:00,33.0,-99.9,-100.00,South,176,6.0,-999.0,-999,-99.99,,,-99.99,,2013-02-03 07:53:00,
2013-02-03 01:02:00,32.0,-99.9,-100.00,South,186,5.0,-999.0,-999,-99.99,,,-99.99,,2013-02-03 08:02:00,
2013-02-03 01:11:00,32.0,-99.9,-100.00,South,186,5.0,-999.0,-999,-99.99,,,-99.99,,2013-02-03 08:11:00,
2013-02-03 01:22:00,32.0,-99.9,-100.00,SW,215,3.0,-999.0,-999,-99.99,,,-99.99,,2013-02-03 08:22:00,
2013-02-03 01:32:00,32.0,-99.9,-100.00,SW,215,3.0,-999.0,-999,-99.99,,,-99.99,,2013-02-03 08:32:00,
2013-02-03 01:42:00,32.0,-99.9,-100.00,SW,215,3.0,-999.0,-999,-99.99,,,-99.99,,2013-02-03 08:42:00,
2013-02-03 01:52:00,31.0,-99.9,-100.00,SE,129,2.0,-999.0,-999,-99.99,,,-99.99,,2013-02-03 08:52:00,
2013-02-03 02:03:00,32.0,-99.9,-100.00,SSW,192,5.0,-999.0,-999,-99.99,,,-99.99,,2013-02-03 09:03:00,
2013-02-03 02:11:00,32.0,-99.9,-100.00,SSW,192,5.0,-999.0,-999,-99.99,,,-99.99,,2013-02-03 09:11:00,
2013-02-03 02:22:00,31.0,-99.9,-100.00,South,190,5.0,-999.0,-999,-99.99,,,-99.99,,2013-02-03 09:22:00,
2013-02-03 02:32:00,31.0,-99.9,-100.00,South,190,5.0,-999.0,-999,-99.99,,,-99.99,,2013-02-03 09:32:00,
2013-02-03 02:42:00,31.0,-99.9,-100.00,South,190,5.0,-999.0,-999,-99.99,,,-99.99,,2013-02-03 09:42:00,
2013-02-03 02:52:00,31.0,-99.9,-100.00,SSW,198,4.0,-999.0,-999,-99.99,,,-99.99,,2013-02-03 09:52:00,
2013-02-03 03:02:00,31.0,-99.9,-100.00,WSW,238,4.0,-999.0,-999,-99.99,,,-99.99,,2013-02-03 10:02:00,
2013-02-03 03:11:00,31.0,-99.9,-100.00,WSW,238,4.0,-999.0,-999,-99.99,,,-99.99,,2013-02-03 10:11:00,
2013-02-03 03:22:00,31.0,-99.9,-100.00,WSW,258,3.0,-999.0,-999,-99.99,,,-99.99,,2013-02-03 10:22:00,
2013-02-03 03:32:00,30.0,-99.9,-100.00,SSW,201,3.0,-999.0,-999,-99.99,,,-99.99,,2013-02-03 10:32:00,
2013-02-03 03:42:00,30.0,-99.9,-100.00,SSW,201,3.0,-999.0,-999,-99.99,,,-99.99,,2013-02-03 10:42:00,
2013-02-03 03:53:00,30.0,-99.9,-100.00,South,180,3.0,-999.0,-999,-99.99,,,-99.99,,2013-02-03 10:53:00,
2013-02-03 04:02:00,29.0,-99.9,-100.00,SE,136,3.0,-999.0,-999,-99.99,,,-99.99,,2013-02-03 11:02:00,
2013-02-03 04:11:00,29.0,-99.9,-100.00,SE,136,3.0,-999.0,-999,-99.99,,,-99.99,,2013-02-03 11:11:00,
2013-02-03 04:22:00,29.0,-99.9,-100.00,North,1,1.0,-999.0,-999,-99.99,,,-99.99,,2013-02-03 11:22:00,
2013-02-03 04:32:00,28.0,-99.9,-100.00,SSW,212,3.0,-999.0,-999,-99.99,,,-99.99,,2013-02-03 11:32:00,
2013-02-03 04:42:00,28.0,-99.9,-100.00,SSW,212,3.0,-999.0,-999,-99.99,,,-99.99,,2013-02-03 11:42:00,
2013-02-03 04:52:00,29.0,-99.9,-100.00,SW,215,6.0,-999.0,-999,-99.99,,,-99.99,,2013-02-03 11:52:00,
2013-02-03 05:03:00,29.0,-99.9,-100.00,South,191,4.0,-999.0,-999,-99.99,,,-99.99,,2013-02-03 12:03:00,
2013-02-03 05:12:00,29.0,-99.9,-100.00,South,191,4.0,-999.0,-999,-99.99,,,-99.99,,2013-02-03 12:12:00,
2013-02-03 05:22:00,28.0,-99.9,-100.00,SSW,202,2.0,-999.0,-999,-99.99,,,-99.99,,2013-02-03 12:22:00,
2013-02-03 05:33:00,28.0,-99.9,-100.00,South,182,4.0,-999.0,-999,-99.99,,,-99.99,,2013-02-03 12:33:00,
2013-02-03 05:42:00,28.0,-99.9,-100.00,South,182,4.0,-999.0,-999,-99.99,,,-99.99,,2013-02-03 12:42:00,
2013-02-03 05:53:00,29.0,-99.9,-100.00,South,176,4.0,-999.0,-999,-99.99,,,-99.99,,2013-02-03 12:53:00,
2013-02-03 06:04:00,28.0,-99.9,-100.00,SSW,212,3.0,-999.0,-999,-99.99,,,-99.99,,2013-02-03 13:04:00,
2013-02-03 06:12:00,28.0,-99.9,-100.00,SSW,212,3.0,-999.0,-999,-99.99,,,-99.99,,2013-02-03 13:12:00,
2013-02-03 06:22:00,28.0,-99.9,-100.00,WSW,252,3.0,-999.0,-999,-99.99,,,-99.99,,2013-02-03 13:22:00,
2013-02-03 06:32:00,28.0,-99.9,-100.00,SW,236,4.0,-999.0,-999,-99.99,,,-99.99,,2013-02-03 13:32:00,
2013-02-03 06:42:00,28.0,-99.9,-100.00,SW,236,4.0,-999.0,-999,-99.99,,,-99.99,,2013-02-03 13:42:00,
2013-02-03 06:53:00,28.0,-99.9,-100.00,SSW,208,4.0,-999.0,-999,-99.99,,,-99.99,,2013-02-03 13:53:00,
2013-02-03 07:03:00,28.0,-99.9,-100.00,SSW,202,4.0,-999.0,-999,-99.99,,,-99.99,,2013-02-03 14:03:00,
2013-02-03 07:12:00,28.0,-99.9,-100.00,SSW,202,4.0,-999.0,-999,-99.99,,,-99.99,,2013-02-03 14:12:00,
2013-02-03 07:22:00,28.0,-99.9,-100.00,SW,215,4.0,-999.0,-999,-99.99,,,-99.99,,2013-02-03 14:22:00,
2013-02-03 07:32:00,28.0,-99.9,-100.00,SW,233,4.0,-999.0,-999,-99.99,,,-99.99,,2013-02-03 14:32:00,
2013-02-03 07:43:00,28.0,-99.9,-100.00,SW,233,4.0,-999.0,-999,-99.99,,,-99.99,,2013-02-03 14:43:00,
2013-02-03 07:53:00,27.0,-99.9,-100.00,SW,223,5.0,-999.0,-999,-99.99,,,-99.99,,2013-02-03 14:53:00,
2013-02-03 08:03:00,27.0,-99.9,-100.00,SW,217,2.0,-999.0,-999,-99.99,,,-99.99,,2013-02-03 15:03:00,
2013-02-03 08:12:00,27.0,-99.9,-100.00,SW,217,2.0,-999.0,-999,-99.99,,,-99.99,,2013-02-03 15:12:00,
2013-02-03 08:23:00,27.0,-99.9,-100.00,SSE,163,3.0,-999.0,-999,-99.99,,,-99.99,,2013-02-03 15:23:00,
2013-02-03 08:33:00,27.0,-99.9,-100.00,SSE,163,3.0,-999.0,-999,-99.99,,,-99.99,,2013-02-03 15:33:00,
2013-02-03 08:42:00,27.0,-99.9,-100.00,SSE,163,3.0,-999.0,-999,-99.99,,,-99.99,,2013-02-03 15:42:00,
2013-02-03 08:52:00,27.0,-99.9,-100.00,West,260,2.0,-999.0,-999,-99.99,,,-99.99,,2013-02-03 15:52:00,
2013-02-03 09:03:00,27.0,-99.9,-100.00,West,260,2.0,-999.0,-999,-99.99,,,-99.99,,2013-02-03 16:03:00,
2013-02-03 09:12:00,27.0,-99.9,-100.00,West,260,2.0,-999.0,-999,-99.99,,,-99.99,,2013-02-03 16:12:00,
2013-02-03 09:22:00,29.0,-99.9,-100.00,SSW,211,4.0,-999.0,-999,-99.99,,,-99.99,,2013-02-03 16:22:00,
2013-02-03 09:33:00,32.0,-99.9,-100.00,SSW,209,3.0,-999.0,-999,-99.99,,,-99.99,,2013-02-03 16:33:00,
2013-02-03 09:42:00,32.0,-99.9,-100.00,SSW,209,3.0,-999.0,-999,-99.99,,,-99.99,,2013-02-03 16:42:00,
2013-02-03 09:52:00,35.0,-99.9,-100.00,SSW,210,4.0,-999.0,-999,-99.99,,,-99.99,,2013-02-03 16:52:00,
2013-02-03 10:03:00,35.0,-99.9,-100.00,WSW,237,4.0,-999.0,-999,-99.99,,,-99.99,,2013-02-03 17:03:00,
2013-02-03 10:12:00,35.0,-99.9,-100.00,WSW,237,4.0,-999.0,-999,-99.99,,,-99.99,,2013-02-03 17:12:00,
2013-02-03 10:22:00,35.0,-99.9,-100.00,WSW,245,4.0,-999.0,-999,-99.99,,,-99.99,,2013-02-03 17:22:00,
2013-02-03 10:32:00,36.0,-99.9,-100.00,West,259,4.0,-999.0,-999,-99.99,,,-99.99,,2013-02-03 17:32:00,
2013-02-03 10:42:00,36.0,-99.9,-100.00,West,259,4.0,-999.0,-999,-99.99,,,-99.99,,2013-02-03 17:42:00,
2013-02-03 10:53:00,38.0,-99.9,-100.00,SW,225,6.0,-999.0,-999,-99.99,,,-99.99,,2013-02-03 17:53:00,
2013-02-03 11:03:00,41.0,-99.9,-100.00,NNE,30,3.0,-999.0,-999,-99.99,,,-99.99,,2013-02-03 18:03:00,
2013-02-03 11:12:00,41.0,-99.9,-100.00,NNE,30,3.0,-999.0,-999,-99.99,,,-99.99,,2013-02-03 18:12:00,
2013-02-03 11:23:00,43.0,-99.9,-100.00,NE,45,3.0,-999.0,-999,-99.99,,,-99.99,,2013-02-03 18:23:00,
2013-02-03 11:33:00,45.0,-99.9,-100.00,NNE,24,4.0,-999.0,-999,-99.99,,,-99.99,,2013-02-03 18:33:00,
2013-02-03 11:42:00,45.0,-99.9,-100.00,NNE,24,4.0,-999.0,-999,-99.99,,,-99.99,,2013-02-03 18:42:00,
2013-02-03 11:52:00,45.0,-99.9,-100.00,NNE,13,5.0,-999.0,-999,-99.99,,,-99.99,,2013-02-03 18:52:00,
2013-02-03 12:03:00,45.0,-99.9,-100.00,North,8,7.0,-999.0,-999,-99.99,,,-99.99,,2013-02-03 19:03:00,
2013-02-03 12:11:00,45.0,-99.9,-100.00,North,8,7.0,-999.0,-999,-99.99,,,-99.99,,2013-02-03 19:11:00,
2013-02-03 12:22:00,44.0,-99.9,-100.00,North,6,7.0,-999.0,-999,-99.99,,,-99.99,,2013-02-03 19:22:00,
2013-02-03 12:33:00,44.0,-99.9,-100.00,NNE,16,6.0,-999.0,-999,-99.99,,,-99.99,,2013-02-03 19:33:00,
2013-02-03 12:42:00,44.0,-99.9,-100.00,NNE,16,6.0,-999.0,-999,-99.99,,,-99.99,,2013-02-03 19:42:00,
2013-02-03 12:52:00,45.0,-99.9,-100.00,NNE,18,7.0,-999.0,-999,-99.99,,,-99.99,,2013-02-03 19:52:00,
2013-02-03 13:02:00,45.0,-99.9,-100.00,NNE,12,8.0,-999.0,-999,-99.99,,,-99.99,,2013-02-03 20:02:00,
2013-02-03 13:12:00,45.0,-99.9,-100.00,NNE,12,8.0,-999.0,-999,-99.99,,,-99.99,,2013-02-03 20:12:00,
2013-02-03 13:22:00,46.0,-99.9,-100.00,NNE,29,6.0,-999.0,-999,-99.99,,,-99.99,,2013-02-03 20:22:00,
2013-02-03 13:33:00,47.0,-99.9,-100.00,NNE,20,6.0,-999.0,-999,-99.99,,,-99.99,,2013-02-03 20:33:00,
2013-02-03 13:42:00,47.0,-99.9,-100.00,NNE,20,6.0,-999.0,-999,-99.99,,,-99.99,,2013-02-03 20:42:00,
2013-02-03 13:52:00,47.0,-99.9,-100.00,North,2,6.0,-999.0,-999,-99.99,,,-99.99,,2013-02-03 20:52:00,
2013-02-03 14:04:00,47.0,-99.9,-100.00,North,5,6.0,-999.0,-999,-99.99,,,-99.99,,2013-02-03 21:04:00,
2013-02-03 14:11:00,47.0,-99.9,-100.00,North,5,6.0,-999.0,-999,-99.99,,,-99.99,,2013-02-03 21:11:00,
2013-02-03 14:22:00,48.0,-99.9,-100.00,North,11,5.0,-999.0,-999,-99.99,,,-99.99,,2013-02-03 21:22:00,
2013-02-03 14:33:00,48.0,-99.9,-100.00,North,7,4.0,-999.0,-999,-99.99,,,-99.99,,2013-02-03 21:33:00,
2013-02-03 14:43:00,48.0,-99.9,-100.00,North,7,4.0,-999.0,-999,-99.99,,,-99.99,,2013-02-03 21:43:00,
2013-02-03 14:52:00,49.0,-99.9,-100.00,NNE,31,3.0,-999.0,-999,-99.99,,,-99.99,,2013-02-03 21:52:00,
2013-02-03 15:02:00,49.0,-99.9,-100.00,NNE,25,3.0,-999.0,-999,-99.99,,,-99.99,,2013-02-03 22:02:00,
2013-02-03 15:11:00,49.0,-99.9,-100.00,NNE,25,3.0,-999.0,-999,-99.99,,,-99.99,,2013-02-03 22:11:00,
2013-02-03 15:22:00,50.0,-99.9,-100.00,East,79,4.0,-999.0,-999,-99.99,,,-99.99,,2013-02-03 22:22:00,
2013-02-03 15:32:00,50.0,-99.9,-100.00,ESE,109,3.0,-999.0,-999,-99.99,,,-99.99,,2013-02-03 22:32:00,
2013-02-03 15:42:00,50.0,-99.9,-100.00,ESE,109,3.0,-999.0,-999,-99.99,,,-99.99,,2013-02-03 22:42:00,
2013-02-03 15:52:00,49.0,-99.9,-100.00,ENE,71,4.0,-999.0,-999,-99.99,,,-99.99,,2013-02-03 22:52:00,
2013-02-03 16:02:00,49.0,-99.9,-100.00,ESE,112,3.0,-999.0,-999,-99.99,,,-99.99,,2013-02-03 23:02:00,
2013-02-03 16:12:00,49.0,-99.9,-100.00,ESE,112,3.0,-999.0,-999,-99.99,,,-99.99,,2013-02-03 23:12:00,
2013-02-03 16:22:00,49.0,-99.9,-100.00,NE,55,3.0,-999.0,-999,-99.99,,,-99.99,,2013-02-03 23:22:00,
2013-02-03 16:33:00,49.0,-99.9,-100.00,East,86,3.0,-999.0,-999,-99.99,,,-99.99,,2013-02-03 23:33:00,
2013-02-03 16:42:00,49.0,-99.9,-100.00,East,86,3.0,-999.0,-999,-99.99,,,-99.99,,2013-02-03 23:42:00,
2013-02-03 16:52:00,48.0,-99.9,-100.00,East,79,2.0,-999.0,-999,-99.99,,,-99.99,,2013-02-03 23:52:00,
2013-02-03 17:02:00,48.0,-99.9,-100.00,SE,125,3.0,-999.0,-999,-99.99,,,-99.99,,2013-02-04 00:02:00,
2013-02-03 17:11:00,48.0,-99.9,-100.00,SE,125,3.0,-999.0,-999,-99.99,,,-99.99,,2013-02-04 00:11:00,
2013-02-03 17:22:00,48.0,-99.9,-100.00,NNE,33,3.0,-999.0,-999,-99.99,,,-99.99,,2013-02-04 00:22:00,
2013-02-03 17:32:00,48.0,-99.9,-100.00,NNE,33,3.0,-999.0,-999,-99.99,,,-99.99,,2013-02-04 00:32:00,
2013-02-03 17:42:00,48.0,-99.9,-100.00,NNE,33,3.0,-999.0,-999,-99.99,,,-99.99,,2013-02-04 00:42:00,
2013-02-03 17:52:00,51.0,-99.9,-100.00,NNW,337,9.0,-999.0,-999,-99.99,,,-99.99,,2013-02-04 00:52:00,
2013-02-03 18:01:00,49.0,-99.9,-100.00,NNW,341,8.0,-999.0,-999,-99.99,,,-99.99,,2013-02-04 01:01:00,
2013-02-03 18:11:00,49.0,-99.9,-100.00,NNW,341,8.0,-999.0,-999,-99.99,,,-99.99,,2013-02-04 01:11:00,
2013-02-03 18:22:00,47.0,-99.9,-100.00,NNE,20,7.0,-999.0,-999,-99.99,,,-99.99,,2013-02-04 01:22:00,
2013-02-03 18:32:00,45.0,-99.9,-100.00,NNE,12,6.0,-999.0,-999,-99.99,,,-99.99,,2013-02-04 01:32:00,
2013-02-03 18:42:00,45.0,-99.9,-100.00,NNE,12,6.0,-999.0,-999,-99.99,,,-99.99,,2013-02-04 01:42:00,
2013-02-03 18:52:00,43.0,-99.9,-100.00,NNE,21,6.0,-999.0,-999,-99.99,,,-99.99,,2013-02-04 01:52:00,
2013-02-03 19:02:00,42.0,-99.9,-100.00,NNE,12,6.0,-999.0,-999,-99.99,,,-99.99,,2013-02-04 02:02:00,
2013-02-03 19:11:00,42.0,-99.9,-100.00,NNE,12,6.0,-999.0,-999,-99.99,,,-99.99,,2013-02-04 02:11:00,
2013-02-03 19:22:00,45.0,-99.9,-100.00,WNW,282,6.0,-999.0,-999,-99.99,,,-99.99,,2013-02-04 02:22:00,
2013-02-03 19:32:00,44.0,-99.9,-100.00,North,358,7.0,-999.0,-999,-99.99,,,-99.99,,2013-02-04 02:32:00,
2013-02-03 19:42:00,44.0,-99.9,-100.00,North,358,7.0,-999.0,-999,-99.99,,,-99.99,,2013-02-04 02:42:00,
2013-02-03 19:52:00,42.0,-99.9,-100.00,North,358,4.0,-999.0,-999,-99.99,,,-99.99,,2013-02-04 02:52:00,
2013-02-03 20:02:00,40.0,-99.9,-100.00,NE,46,6.0,-999.0,-999,-99.99,,,-99.99,,2013-02-04 03:02:00,
2013-02-03 20:11:00,40.0,-99.9,-100.00,NE,46,6.0,-999.0,-999,-99.99,,,-99.99,,2013-02-04 03:11:00,
2013-02-03 20:22:00,39.0,-99.9,-100.00,ENE,76,5.0,-999.0,-999,-99.99,,,-99.99,,2013-02-04 03:22:00,
2013-02-03 20:32:00,38.0,-99.9,-100.00,SE,141,4.0,-999.0,-999,-99.99,,,-99.99,,2013-02-04 03:32:00,
2013-02-03 20:42:00,38.0,-99.9,-100.00,SE,141,4.0,-999.0,-999,-99.99,,,-99.99,,2013-02-04 03:42:00,
2013-02-03 20:52:00,38.0,-99.9,-100.00,SSE,165,4.0,-999.0,-999,-99.99,,,-99.99,,2013-02-04 03:52:00,
2013-02-03 21:02:00,38.0,-99.9,-100.00,SSE,168,4.0,-999.0,-999,-99.99,,,-99.99,,2013-02-04 04:02:00,
2013-02-03 21:11:00,38.0,-99.9,-100.00,SSE,168,4.0,-999.0,-999,-99.99,,,-99.99,,2013-02-04 04:11:00,
2013-02-03 21:22:00,39.0,-99.9,-100.00,SE,141,4.0,-999.0,-999,-99.99,,,-99.99,,2013-02-04 04:22:00,
2013-02-03 21:32:00,37.0,-99.9,-100.00,SE,139,6.0,-999.0,-999,-99.99,,,-99.99,,2013-02-04 04:32:00,
2013-02-03 21:42:00,37.0,-99.9,-100.00,SE,139,6.0,-999.0,-999,-99.99,,,-99.99,,2013-02-04 04:42:00,
2013-02-03 21:52:00,36.0,-99.9,-100.00,SE,142,6.0,-999.0,-999,-99.99,,,-99.99,,2013-02-04 04:52:00,
2013-02-03 22:03:00,36.0,-99.9,-100.00,East,88,4.0,-999.0,-999,-99.99,,,-99.99,,2013-02-04 05:03:00,
2013-02-03 22:12:00,36.0,-99.9,-100.00,East,88,4.0,-999.0,-999,-99.99,,,-99.99,,2013-02-04 05:12:00,
2013-02-03 22:22:00,38.0,-99.9,-100.00,SE,126,2.0,-999.0,-999,-99.99,,,-99.99,,2013-02-04 05:22:00,
2013-02-03 22:33:00,38.0,-99.9,-100.00,SE,132,5.0,-999.0,-999,-99.99,,,-99.99,,2013-02-04 05:33:00,
2013-02-03 22:42:00,38.0,-99.9,-100.00,SE,132,5.0,-999.0,-999,-99.99,,,-99.99,,2013-02-04 05:42:00,
2013-02-03 22:52:00,36.0,-99.9,-100.00,ESE,118,6.0,-999.0,-999,-99.99,,,-99.99,,2013-02-04 05:52:00,
2013-02-03 23:02:00,35.0,-99.9,-100.00,SE,131,6.0,-999.0,-999,-99.99,,,-99.99,,2013-02-04 06:02:00,
2013-02-03 23:11:00,35.0,-99.9,-100.00,SE,131,6.0,-999.0,-999,-99.99,,,-99.99,,2013-02-04 06:11:00,
2013-02-03 23:22:00,35.0,-99.9,-100.00,SSE,153,5.0,-999.0,-999,-99.99,,,-99.99,,2013-02-04 06:22:00,
2013-02-03 23:32:00,35.0,-99.9,-100.00,SSE,153,5.0,-999.0,-999,-99.99,,,-99.99,,2013-02-04 06:32:00,
2013-02-03 23:42:00,35.0,-99.9,-100.00,SSE,153,5.0,-999.0,-999,-99.99,,,-99.99,,2013-02-04 06:42:00,
2013-02-03 23:52:00,37.0,-99.9,-100.00,ESE,108,3.0,-999.0,-999,-99.99,,,-99.99,,2013-02-04 06:52:00,